User: anonymous   Login
Location: Unspecified
(0.0000°N, 0.0000°E)
Time: 06:40:02
(UTC+00:00)
Language:

HO-68 - Orbit

View from above orbital plane
View from above orbital plane
View from above satellite
View from above satellite

Ground track
Ground track

The orbit data is extracted from the following two-line orbital elements,

1 36122U 09072B   14353.71738530 -.00000060  00000-0 -43517-4 0  2245
2 36122 100.2242 039.7193 0007861 171.5324 188.5929 13.16321654240846
Epoch (UTC): 19 December 2014 17:13:02
Eccentricity: 0.0007861
inclination: 100.2242°
perigee height: 1193 km
apogee height: 1205 km
right ascension of ascending node: 39.7193°
argument of perigee: 171.5324°
revolutions per day: 13.16321654
mean anomaly at epoch: 188.5929°
orbit number at epoch: 24084

The dashed part of the orbit path shows where the satellite is in the earth's shadow,  

DLR